Location: Étang Rond
(42.7927°N, 1.0661°E)
Time: 22:31:20
(UTC+00:00)

Cosmos 2251 Rocket - Pass Details

Date: 08 November 2025
Orbit: 760 x 788 km, 74.0° (Epoch: 12 December)

Event Time Altitude Azimuth Distance (km) Brightness Sun altitude
Rises 05:12:35 0° 344° (NNW) 3,284 6.5 -16.1°
Reaches altitude 10° 05:15:04 10° 349° (N) 2,355 5.8 -15.6°
Maximum altitude 05:20:16 51° 65° (ENE) 990 4.4 -14.7°
Drops below altitude 10° 05:25:28 10° 141° (SE) 2,344 6.7 -13.7°
Sets 05:27:55 0° 147° (SSE) 3,269 7.5 -13.3°
